| time (UTC) | temp F | wind direction | speed knots | gust knots | rain 1hr in | rain 24hr in | rain mn in | humidity % | barometer mb |
| 20260507105154 | 49 | 149 | 0.0 | 0.0 | 0.00 | 0.01 | 0.01 | 88 | 1010.9 |
| 20260507104652 | 48 | 149 | 0.0 | 0.0 | 0.00 | 0.01 | 0.01 | 89 | 1010.7 |
| 20260507104148 | 48 | 149 | 0.0 | 0.0 | 0.00 | 0.01 | 0.01 | 89 | 1010.8 |
| 20260507103644 | 48 | 149 | 0.0 | 0.0 | 0.00 | 0.01 | 0.01 | 90 | 1010.7 |
| 20260507103141 | 48 | 149 | 0.0 | 0.0 | 0.00 | 0.01 | 0.01 | 89 | 1010.9 |
| 20260507102637 | 48 | 149 | 0.0 | 0.0 | 0.00 | 0.01 | 0.01 | 89 | 1011.4 |
| 20260507102134 | 48 | 149 | 0.0 | 0.0 | 0.00 | 0.01 | 0.01 | 89 | 1010.8 |
| 20260507101630 | 48 | 149 | 0.0 | 0.0 | 0.00 | 0.01 | 0.01 | 89 | 1011.0 |
| 20260507101126 | 48 | 149 | 0.0 | 0.0 | 0.00 | 0.01 | 0.01 | 89 | 1010.9 |
| 20260507100623 | 48 | 149 | 0.0 | 0.0 | 0.00 | 0.01 | 0.01 | 89 | 1010.9 |
| 20260507100121 | 48 | 149 | 0.0 | 0.0 | 0.00 | 0.01 | 0.01 | 88 | 1010.6 |
| 20260507095619 | 48 | 149 | 0.0 | 0.0 | 0.00 | 0.01 | 0.01 | 88 | 1010.7 |
| 20260507095115 | 48 | 149 | 0.0 | 0.0 | 0.00 | 0.01 | 0.01 | 88 | 1010.7 |
| 20260507094611 | 48 | 149 | 0.0 | 0.0 | 0.00 | 0.01 | 0.01 | 89 | 1010.8 |
| 20260507094109 | 49 | 149 | 0.0 | 0.0 | 0.00 | 0.01 | 0.01 | 88 | 1010.7 |
| 20260507093606 | 49 | 109 | 0.0 | 0.0 | 0.00 | 0.01 | 0.01 | 88 | 1010.2 |
| 20260507093105 | 49 | 111 | 0.0 | 0.0 | 0.00 | 0.01 | 0.01 | 88 | 1010.2 |
| 20260507092601 | 49 | 144 | 0.0 | 0.0 | 0.00 | 0.01 | 0.01 | 88 | 1010.6 |
| 20260507092057 | 49 | 124 | 0.0 | 0.0 | 0.00 | 0.01 | 0.01 | 87 | 1010.6 |
| 20260507091554 | 49 | 135 | 0.0 | 0.9 | 0.00 | 0.01 | 0.01 | 88 | 1010.2 |
| 20260507091050 | 49 | 116 | 0.0 | 0.0 | 0.00 | 0.01 | 0.01 | 87 | 1010.2 |
| 20260507090546 | 49 | 113 | 0.0 | 0.0 | 0.00 | 0.01 | 0.01 | 88 | 1010.2 |
| 20260507090043 | 49 | 128 | 0.0 | 0.0 | 0.00 | 0.01 | 0.01 | 87 | 1010.2 |
| 20260507085540 | 50 | 105 | 0.0 | 0.0 | 0.00 | 0.01 | 0.01 | 88 | 1010.0 |
| 20260507085037 | 50 | 97 | 0.9 | 0.9 | 0.00 | 0.01 | 0.01 | 89 | 1010.1 |
| 20260507084534 | 50 | 192 | 0.0 | 1.7 | 0.00 | 0.01 | 0.01 | 90 | 1010.1 |
| 20260507084031 | 50 | 108 | 0.0 | 1.7 | 0.00 | 0.01 | 0.01 | 92 | 1010.1 |
| 20260507083527 | 50 | 121 | 0.0 | 0.9 | 0.00 | 0.01 | 0.01 | 94 | 1010.2 |
| 20260507083024 | 50 | 145 | 0.0 | 1.7 | 0.00 | 0.01 | 0.01 | 95 | 1010.5 |
| 20260507082520 | 50 | 128 | 0.0 | 0.0 | 0.00 | 0.01 | 0.01 | 95 | 1010.4 |
| 20260507082016 | 50 | 139 | 0.0 | 0.9 | 0.00 | 0.01 | 0.01 | 95 | 1010.3 |
| 20260507081513 | 50 | 118 | 0.0 | 0.0 | 0.00 | 0.01 | 0.01 | 95 | 1009.9 |
| 20260507081010 | 51 | 118 | 0.0 | 0.0 | 0.00 | 0.01 | 0.01 | 95 | 1010.0 |
| 20260507080506 | 51 | 118 | 0.0 | 0.0 | 0.00 | 0.01 | 0.01 | 95 | 1009.9 |
| 20260507080001 | 51 | 118 | 0.0 | 0.0 | 0.00 | 0.01 | 0.01 | 95 | 1010.0 |
| 20260507075458 | 51 | 118 | 0.0 | 0.0 | 0.00 | 0.01 | 0.01 | 95 | 1009.5 |
| 20260507074954 | 51 | 118 | 0.0 | 0.0 | 0.00 | 0.01 | 0.01 | 95 | 1009.5 |
| 20260507074451 | 51 | 118 | 0.0 | 0.0 | 0.00 | 0.01 | 0.01 | 95 | 1009.7 |
| 20260507073950 | 51 | 146 | 0.0 | 0.0 | 0.00 | 0.01 | 0.01 | 95 | 1009.7 |
| 20260507073445 | 51 | 144 | 0.0 | 0.0 | 0.00 | 0.01 | 0.01 | 96 | 1010.0 |
| 20260507072942 | 51 | 132 | 0.0 | 0.0 | 0.00 | 0.01 | 0.01 | 96 | 1009.9 |
| 20260507072440 | 51 | 178 | 0.0 | 0.0 | 0.00 | 0.01 | 0.01 | 96 | 1009.7 |
| 20260507071937 | 51 | 169 | 0.0 | 0.0 | 0.00 | 0.01 | 0.01 | 96 | 1009.7 |
| 20260507071434 | 51 | 169 | 0.0 | 0.0 | 0.00 | 0.01 | 0.01 | 96 | 1009.5 |
| 20260507070930 | 51 | 169 | 0.0 | 0.0 | 0.00 | 0.01 | 0.01 | 96 | 1009.3 |
| 20260507070428 | 51 | 169 | 0.0 | 0.0 | 0.00 | 0.01 | 0.01 | 96 | 1009.4 |
| 20260507065924 | 52 | 169 | 0.0 | 0.0 | 0.00 | 0.01 | 0.01 | 96 | 1009.3 |
| 20260507065421 | 52 | 169 | 0.0 | 0.0 | 0.00 | 0.01 | 0.01 | 96 | 1009.4 |
| 20260507064918 | 52 | 169 | 0.0 | 0.0 | 0.00 | 0.01 | 0.01 | 96 | 1009.3 |
| 20260507064417 | 52 | 168 | 0.0 | 0.0 | 0.00 | 0.01 | 0.01 | 96 | 1009.2 |
| 20260507063914 | 52 | 169 | 0.0 | 0.0 | 0.00 | 0.01 | 0.01 | 96 | 1009.5 |
| 20260507063411 | 52 | 169 | 0.0 | 0.0 | 0.00 | 0.01 | 0.01 | 96 | 1009.4 |
| 20260507062908 | 52 | 169 | 0.0 | 0.0 | 0.00 | 0.01 | 0.01 | 96 | 1009.2 |
| 20260507062405 | 52 | 169 | 0.0 | 0.0 | 0.00 | 0.01 | 0.01 | 96 | 1009.6 |
| 20260507061902 | 52 | 169 | 0.0 | 0.0 | 0.00 | 0.01 | 0.01 | 96 | 1009.2 |
| 20260507061400 | 52 | 169 | 0.0 | 0.0 | 0.00 | 0.01 | 0.01 | 96 | 1008.9 |
| 20260507060859 | 53 | 169 | 0.0 | 0.0 | 0.00 | 0.01 | 0.01 | 96 | 1009.0 |
| 20260507060355 | 53 | 169 | 0.0 | 0.0 | 0.00 | 0.01 | 0.01 | 96 | 1009.3 |
| 20260507055852 | 53 | 169 | 0.0 | 0.0 | 0.00 | 0.01 | 0.01 | 96 | 1009.3 |
| 20260507055352 | 53 | 169 | 0.0 | 0.9 | 0.00 | 0.01 | 0.01 | 96 | 1009.3 |
| 20260507054850 | 53 | 175 | 0.0 | 0.9 | 0.00 | 0.01 | 0.01 | 96 | 1009.2 |
| 20260507054345 | 53 | 142 | 0.0 | 0.9 | 0.00 | 0.01 | 0.01 | 96 | 1008.7 |
| 20260507053843 | 53 | 108 | 0.0 | 1.7 | 0.00 | 0.01 | 0.01 | 96 | 1008.7 |
| 20260507053341 | 53 | 145 | 0.0 | 0.0 | 0.00 | 0.01 | 0.01 | 97 | 1008.4 |
| 20260507052840 | 53 | 145 | 0.0 | 0.0 | 0.00 | 0.01 | 0.01 | 97 | 1008.8 |
| 20260507052336 | 53 | 165 | 0.0 | 0.9 | 0.00 | 0.01 | 0.01 | 97 | 1009.0 |
| 20260507051833 | 53 | 176 | 0.9 | 0.9 | 0.00 | 0.01 | 0.01 | 97 | 1008.7 |
| 20260507051331 | 53 | 162 | 0.0 | 0.9 | 0.00 | 0.01 | 0.01 | 97 | 1008.5 |
| 20260507050827 | 53 | 170 | 0.9 | 1.7 | 0.00 | 0.01 | 0.01 | 97 | 1008.5 |
| 20260507050324 | 53 | 125 | 0.0 | 0.9 | 0.00 | 0.01 | 0.01 | 97 | 1008.4 |
| 20260507045821 | 54 | 167 | 0.0 | 0.9 | 0.00 | 0.01 | 0.01 | 97 | 1008.9 |
| 20260507045317 | 54 | 134 | 0.0 | 0.0 | 0.00 | 0.01 | 0.01 | 98 | 1008.8 |
| 20260507044815 | 54 | 171 | 0.9 | 0.9 | 0.00 | 0.01 | 0.01 | 98 | 1008.7 |
| 20260507044311 | 54 | 177 | 0.0 | 0.9 | 0.00 | 0.01 | 0.01 | 98 | 1008.5 |
| 20260507043807 | 54 | 129 | 0.0 | 1.7 | 0.00 | 0.01 | 0.01 | 98 | 1008.2 |
| 20260507043304 | 54 | 182 | 0.9 | 1.7 | 0.00 | 0.01 | 0.01 | 98 | 1008.2 |
| 20260507042800 | 54 | 202 | 1.7 | 1.7 | 0.07 | 0.01 | 0.01 | 98 | 1008.1 |
| 20260507042255 | 54 | 132 | 0.0 | 0.9 | 0.07 | 0.01 | 0.01 | 98 | 1007.9 |
| 20260507041753 | 54 | 173 | 0.9 | 2.6 | 0.00 | 0.00 | 0.00 | 98 | 1008.3 |
| 20260507041249 | 55 | 198 | 0.9 | 2.6 | 0.00 | 0.00 | 0.00 | 98 | 1008.1 |
| 20260507040746 | 55 | 154 | 0.9 | 1.7 | 0.00 | 0.00 | 0.00 | 98 | 1008.1 |
| 20260507040242 | 55 | 213 | 1.7 | 1.7 | 0.00 | 0.00 | 0.00 | 98 | 1008.0 |
| 20260507035739 | 55 | 181 | 0.0 | 0.9 | 0.00 | 0.23 | 0.23 | 99 | 1008.2 |
| 20260507035234 | 55 | 196 | 1.7 | 1.7 | 0.00 | 0.23 | 0.23 | 99 | 1008.4 |
| 20260507034732 | 55 | 193 | 0.0 | 0.0 | 0.00 | 0.23 | 0.23 | 99 | 1008.2 |
| 20260507034228 | 55 | 193 | 0.0 | 0.0 | 0.00 | 0.23 | 0.23 | 99 | 1008.5 |
| 20260507033727 | 55 | 193 | 0.0 | 0.9 | 0.00 | 0.23 | 0.23 | 99 | 1008.3 |
| 20260507033224 | 55 | 193 | 0.0 | 0.9 | 0.05 | 0.23 | 0.23 | 98 | 1008.2 |
| 20260507032722 | 55 | 203 | 1.7 | 1.7 | 0.05 | 0.23 | 0.23 | 98 | 1008.0 |
| 20260507032217 | 54 | 151 | 0.0 | 0.0 | 0.00 | 0.22 | 0.22 | 98 | 1008.2 |
| 20260507031714 | 54 | 134 | 0.0 | 0.9 | 0.00 | 0.22 | 0.22 | 98 | 1007.9 |
| 20260507031211 | 54 | 233 | 1.7 | 1.7 | 0.00 | 0.22 | 0.22 | 98 | 1007.7 |
| 20260507030708 | 54 | 169 | 0.0 | 1.7 | 0.00 | 0.22 | 0.22 | 98 | 1007.7 |
| 20260507030206 | 54 | 211 | 2.6 | 2.6 | 0.00 | 0.22 | 0.22 | 98 | 1007.7 |
| 20260507025702 | 54 | 175 | 0.9 | 3.5 | 0.00 | 0.22 | 0.22 | 98 | 1007.8 |
| 20260507025159 | 54 | 175 | 0.0 | 1.7 | 0.00 | 0.22 | 0.22 | 98 | 1007.8 |
| 20260507024657 | 54 | 229 | 0.9 | 1.7 | 0.00 | 0.22 | 0.22 | 98 | 1008.0 |
| 20260507024154 | 54 | 184 | 0.9 | 6.1 | 0.00 | 0.22 | 0.22 | 98 | 1007.9 |
| 20260507023649 | 54 | 205 | 0.9 | 2.6 | 0.00 | 0.22 | 0.22 | 98 | 1008.1 |
| 20260507023147 | 54 | 191 | 1.7 | 3.5 | 0.00 | 0.22 | 0.22 | 98 | 1007.8 |
| 20260507022644 | 54 | 180 | 2.6 | 3.5 | 0.00 | 0.22 | 0.22 | 98 | 1008.0 |
| 20260507022140 | 54 | 153 | 0.9 | 3.5 | 0.00 | 0.22 | 0.22 | 98 | 1008.0 |
| 20260507021636 | 54 | 173 | 1.7 | 3.5 | 0.00 | 0.22 | 0.22 | 98 | 1008.2 |
| 20260507021132 | 54 | 221 | 2.6 | 3.5 | 0.00 | 0.22 | 0.22 | 98 | 1008.2 |
| 20260507020630 | 54 | 145 | 0.9 | 3.5 | 0.00 | 0.22 | 0.22 | 98 | 1008.4 |
| 20260507020126 | 54 | 205 | 1.7 | 3.5 | 0.00 | 0.22 | 0.22 | 98 | 1008.4 |
| 20260507015625 | 54 | 188 | 0.9 | 1.7 | 0.00 | 0.22 | 0.22 | 98 | 1008.4 |
| 20260507015122 | 54 | 169 | 1.7 | 3.5 | 0.00 | 0.22 | 0.22 | 98 | 1008.3 |
| 20260507014618 | 54 | 223 | 1.7 | 2.6 | 0.00 | 0.22 | 0.22 | 98 | 1008.3 |
| 20260507014114 | 54 | 144 | 0.0 | 5.2 | 0.00 | 0.22 | 0.22 | 98 | 1008.5 |
| 20260507013611 | 54 | 210 | 1.7 | 6.1 | 0.00 | 0.22 | 0.22 | 98 | 1008.5 |
| 20260507013108 | 54 | 223 | 3.5 | 6.1 | 0.00 | 0.22 | 0.22 | 98 | 1008.5 |
| 20260507012605 | 54 | 206 | 1.7 | 2.6 | 0.00 | 0.22 | 0.22 | 98 | 1008.6 |
| 20260507012101 | 54 | 239 | 3.5 | 7.0 | 0.00 | 0.22 | 0.22 | 98 | 1008.5 |
| 20260507011559 | 54 | 269 | 1.7 | 7.0 | 0.00 | 0.22 | 0.22 | 98 | 1008.6 |
| 20260507011055 | 54 | 183 | 5.2 | 7.0 | 0.00 | 0.22 | 0.22 | 98 | 1008.6 |
| 20260507010550 | 54 | 196 | 1.7 | 5.2 | 0.00 | 0.22 | 0.22 | 98 | 1008.6 |
| 20260507010046 | 54 | 245 | 2.6 | 7.8 | 0.00 | 0.22 | 0.22 | 98 | 1008.5 |
| 20260507005544 | 54 | 237 | 1.7 | 7.0 | 0.00 | 0.22 | 0.22 | 98 | 1008.7 |
| 20260507005040 | 54 | 227 | 3.5 | 6.1 | 0.00 | 0.22 | 0.22 | 98 | 1008.6 |
| 20260507004537 | 53 | 135 | 1.7 | 6.1 | 0.00 | 0.22 | 0.22 | 98 | 1008.6 |
| 20260507004035 | 53 | 205 | 2.6 | 7.0 | 0.07 | 0.22 | 0.22 | 98 | 1008.7 |
| 20260507003530 | 53 | 249 | 3.5 | 3.5 | 0.07 | 0.22 | 0.22 | 97 | 1008.6 |
| 20260507003025 | 53 | 236 | 3.5 | 6.1 | 0.00 | 0.21 | 0.21 | 97 | 1008.7 |
| 20260507002522 | 53 | 139 | 0.9 | 7.8 | 0.00 | 0.21 | 0.21 | 97 | 1008.8 |
| 20260507002018 | 53 | 176 | 2.6 | 7.0 | 0.00 | 0.21 | 0.21 | 97 | 1008.8 |
| 20260507001514 | 53 | 238 | 5.2 | 7.0 | 0.00 | 0.21 | 0.21 | 97 | 1008.7 |
| 20260507001013 | 53 | 227 | 2.6 | 2.6 | 0.00 | 0.21 | 0.21 | 97 | 1008.8 |
| 20260507000508 | 53 | 240 | 1.7 | 7.0 | 0.00 | 0.21 | 0.21 | 97 | 1008.8 |
| 20260507000004 | 53 | 168 | 2.6 | 9.6 | 0.00 | 0.21 | 0.21 | 97 | 1009.0 |
| 20260506235501 | 53 | 173 | 0.0 | 3.5 | 0.00 | 0.21 | 0.21 | 97 | 1008.9 |
| 20260506234957 | 53 | 182 | 2.6 | 6.1 | 0.00 | 0.21 | 0.21 | 97 | 1009.0 |
| 20260506234454 | 53 | 256 | 3.5 | 6.1 | 0.00 | 0.21 | 0.21 | 97 | 1008.9 |
| 20260506233952 | 53 | 219 | 2.6 | 6.1 | 0.00 | 0.21 | 0.21 | 97 | 1008.9 |
| 20260506233449 | 53 | 222 | 1.7 | 5.2 | 0.00 | 0.21 | 0.21 | 97 | 1008.9 |
| 20260506232945 | 53 | 221 | 6.1 | 7.8 | 0.00 | 0.21 | 0.21 | 97 | 1008.9 |
| 20260506232441 | 54 | 203 | 3.5 | 5.2 | 0.00 | 0.21 | 0.21 | 97 | 1009.0 |
| 20260506231937 | 54 | 226 | 2.6 | 7.0 | 0.00 | 0.21 | 0.21 | 97 | 1008.9 |
| 20260506231435 | 54 | 239 | 4.3 | 7.8 | 0.00 | 0.21 | 0.21 | 97 | 1009.0 |
| 20260506230932 | 54 | 223 | 2.6 | 6.1 | 0.00 | 0.21 | 0.21 | 97 | 1009.1 |
| 20260506230428 | 54 | 234 | 3.5 | 5.2 | 0.00 | 0.21 | 0.21 | 96 | 1009.2 |
| 20260506225925 | 54 | 116 | 4.3 | 7.0 | 0.00 | 0.21 | 0.21 | 96 | 1009.0 |
| 20260506225422 | 53 | 348 | 3.5 | 7.8 | 0.00 | 0.21 | 0.21 | 96 | 1009.1 |
| 20260506224919 | 53 | 217 | 4.3 | 5.2 | 0.00 | 0.21 | 0.21 | 96 | 1009.2 |
| 20260506224417 | 53 | 229 | 2.6 | 7.8 | 0.00 | 0.21 | 0.21 | 96 | 1009.4 |
| 20260506223912 | 53 | 247 | 5.2 | 7.8 | 0.00 | 0.21 | 0.21 | 96 | 1009.2 |
| 20260506223408 | 54 | 227 | 4.3 | 7.0 | 0.00 | 0.21 | 0.21 | 96 | 1009.4 |
| 20260506222905 | 54 | 262 | 8.7 | 12.2 | 0.00 | 0.21 | 0.21 | 96 | 1009.1 |
| 20260506222401 | 54 | 235 | 2.6 | 5.2 | 0.07 | 0.21 | 0.21 | 96 | 1009.3 |
| 20260506221859 | 54 | 215 | 1.7 | 5.2 | 0.07 | 0.21 | 0.21 | 96 | 1009.4 |
| 20260506221356 | 54 | 174 | 3.5 | 5.2 | 0.00 | 0.20 | 0.20 | 96 | 1009.5 |
| 20260506220853 | 54 | 227 | 3.5 | 6.1 | 0.00 | 0.20 | 0.20 | 96 | 1009.4 |
| 20260506220349 | 54 | 217 | 5.2 | 7.0 | 0.00 | 0.20 | 0.20 | 96 | 1009.5 |
| 20260506215846 | 54 | 244 | 1.7 | 2.6 | 0.05 | 0.20 | 0.20 | 96 | 1009.5 |
| 20260506215342 | 54 | 234 | 6.1 | 8.7 | 0.12 | 0.20 | 0.20 | 96 | 1009.6 |
| 20260506214838 | 54 | 209 | 1.7 | 5.2 | 0.12 | 0.19 | 0.19 | 95 | 1009.4 |
| 20260506214335 | 54 | 219 | 4.3 | 7.0 | 0.12 | 0.18 | 0.18 | 95 | 1009.6 |
| 20260506213833 | 55 | 206 | 4.3 | 13.0 | 0.12 | 0.17 | 0.17 | 95 | 1009.6 |
| 20260506213330 | 55 | 227 | 7.0 | 8.7 | 0.12 | 0.16 | 0.16 | 95 | 1009.9 |
| 20260506212827 | 55 | 190 | 2.6 | 9.6 | 0.07 | 0.15 | 0.15 | 95 | 1009.8 |
| 20260506212323 | 55 | 206 | 3.5 | 7.0 | 0.05 | 0.14 | 0.14 | 95 | 1009.8 |
| 20260506211818 | 55 | 239 | 5.2 | 8.7 | 0.12 | 0.14 | 0.14 | 95 | 1009.8 |
| 20260506211314 | 55 | 207 | 2.6 | 7.8 | 0.05 | 0.12 | 0.12 | 95 | 1010.1 |
| 20260506210812 | 55 | 232 | 3.5 | 7.0 | 0.12 | 0.12 | 0.12 | 94 | 1010.0 |
| 20260506210308 | 55 | 225 | 4.3 | 6.1 | 0.12 | 0.11 | 0.11 | 94 | 1010.1 |
| 20260506205805 | 55 | 216 | 5.2 | 7.8 | 0.12 | 0.10 | 0.10 | 94 | 1010.0 |
| 20260506205305 | 55 | 184 | 4.3 | 5.2 | 0.14 | 0.09 | 0.09 | 93 | 1010.0 |
| 20260506204758 | 55 | 235 | 2.6 | 6.1 | 0.07 | 0.08 | 0.08 | 93 | 1010.0 |
| 20260506204256 | 55 | 232 | 3.5 | 5.2 | 0.00 | 0.07 | 0.07 | 93 | 1010.0 |
| 20260506203754 | 55 | 247 | 1.7 | 8.7 | 0.05 | 0.07 | 0.07 | 93 | 1010.1 |
| 20260506203251 | 55 | 198 | 3.5 | 5.2 | 0.00 | 0.06 | 0.06 | 92 | 1009.9 |
| 20260506202748 | 56 | 151 | 0.0 | 3.5 | 0.00 | 0.06 | 0.06 | 92 | 1010.0 |
| 20260506202244 | 56 | 188 | 1.7 | 3.5 | 0.07 | 0.06 | 0.06 | 93 | 1010.1 |
| 20260506201741 | 56 | 245 | 3.5 | 7.0 | 0.07 | 0.06 | 0.06 | 93 | 1010.1 |
| 20260506201238 | 56 | 181 | 0.9 | 3.5 | 0.00 | 0.05 | 0.05 | 93 | 1009.8 |
| 20260506200735 | 56 | 207 | 1.7 | 2.6 | 0.00 | 0.05 | 0.05 | 93 | 1010.1 |
| 20260506200231 | 56 | 237 | 2.6 | 3.5 | 0.00 | 0.05 | 0.05 | 93 | 1009.9 |
| 20260506195727 | 56 | 220 | 4.3 | 5.2 | 0.05 | 0.05 | 0.05 | 93 | 1010.2 |
| 20260506195224 | 55 | 183 | 1.7 | 1.7 | 0.05 | 0.05 | 0.05 | 92 | 1010.5 |
| 20260506194721 | 55 | 162 | 0.0 | 2.6 | 0.00 | 0.04 | 0.04 | 92 | 1010.4 |
| 20260506194218 | 55 | 220 | 1.7 | 2.6 | 0.07 | 0.04 | 0.04 | 91 | 1010.5 |
| 20260506193716 | 55 | 252 | 5.2 | 6.1 | 0.07 | 0.04 | 0.04 | 91 | 1010.6 |
| 20260506193212 | 56 | 231 | 3.5 | 6.1 | 0.05 | 0.03 | 0.03 | 90 | 1010.5 |
| 20260506192709 | 56 | 239 | 2.6 | 5.2 | 0.12 | 0.03 | 0.03 | 89 | 1010.6 |
| 20260506192206 | 56 | 243 | 4.3 | 7.0 | 0.12 | 0.02 | 0.02 | 88 | 1011.0 |
| 20260506191703 | 57 | 196 | 1.7 | 5.2 | 0.05 | 0.01 | 0.01 | 87 | 1010.9 |
| 20260506191159 | 57 | 201 | 1.7 | 3.5 | 0.00 | 0.00 | 0.00 | 87 | 1010.7 |
| 20260506190656 | 57 | 202 | 0.9 | 2.6 | 0.00 | 0.00 | 0.00 | 86 | 1010.7 |
| 20260506190153 | 58 | 245 | 1.7 | 6.1 | 0.00 | 0.00 | 0.00 | 85 | 1010.4 |
| 20260506185650 | 58 | 188 | 0.9 | 3.5 | 0.00 | 0.00 | 0.00 | 83 | 1010.6 |
| 20260506185146 | 58 | 227 | 3.5 | 7.0 | 0.00 | 0.00 | 0.00 | 81 | 1010.7 |
| 20260506184644 | 58 | 186 | 5.2 | 7.0 | 0.00 | 0.00 | 0.00 | 80 | 1010.3 |
| 20260506184141 | 59 | 238 | 3.5 | 9.6 | 0.00 | 0.00 | 0.00 | 79 | 1010.1 |
| 20260506183637 | 59 | 224 | 2.6 | 3.5 | 0.00 | 0.00 | 0.00 | 78 | 1010.3 |
| 20260506183133 | 59 | 167 | 0.9 | 7.0 | 0.00 | 0.00 | 0.00 | 78 | 1010.4 |
| 20260506182631 | 59 | 230 | 2.6 | 3.5 | 0.00 | 0.00 | 0.00 | 77 | 1010.3 |
| 20260506182128 | 59 | 264 | 3.5 | 11.3 | 0.00 | 0.00 | 0.00 | 77 | 1010.3 |
| 20260506181626 | 59 | 220 | 2.6 | 6.1 | 0.00 | 0.00 | 0.00 | 77 | 1010.5 |
| 20260506181123 | 59 | 212 | 3.5 | 8.7 | 0.00 | 0.00 | 0.00 | 77 | 1010.7 |
| 20260506180619 | 59 | 231 | 5.2 | 8.7 | 0.00 | 0.00 | 0.00 | 76 | 1010.4 |
| 20260506180116 | 59 | 243 | 2.6 | 7.8 | 0.00 | 0.00 | 0.00 | 77 | 1010.4 |
| 20260506175612 | 59 | 221 | 5.2 | 14.8 | 0.00 | 0.00 | 0.00 | 76 | 1010.5 |
| 20260506175108 | 59 | 260 | 6.1 | 12.2 | 0.00 | 0.00 | 0.00 | 76 | 1010.7 |
| 20260506174607 | 59 | 251 | 3.5 | 7.8 | 0.00 | 0.00 | 0.00 | 76 | 1010.5 |
| 20260506174103 | 59 | 230 | 3.5 | 6.1 | 0.00 | 0.00 | 0.00 | 77 | 1010.6 |
| 20260506173601 | 59 | 218 | 4.3 | 8.7 | 0.00 | 0.00 | 0.00 | 76 | 1010.7 |
| 20260506173058 | 59 | 262 | 1.7 | 5.2 | 0.00 | 0.00 | 0.00 | 77 | 1010.8 |
| 20260506172555 | 58 | 219 | 2.6 | 3.5 | 0.00 | 0.00 | 0.00 | 78 | 1010.7 |
| 20260506172051 | 58 | 247 | 4.3 | 7.0 | 0.00 | 0.00 | 0.00 | 78 | 1010.8 |
| 20260506171549 | 58 | 236 | 5.2 | 7.0 | 0.00 | 0.00 | 0.00 | 78 | 1011.0 |
| 20260506171046 | 58 | 267 | 3.5 | 7.8 | 0.00 | 0.00 | 0.00 | 78 | 1011.0 |
| 20260506170543 | 58 | 286 | 5.2 | 7.0 | 0.00 | 0.00 | 0.00 | 78 | 1011.0 |
| 20260506170041 | 58 | 251 | 2.6 | 7.0 | 0.00 | 0.00 | 0.00 | 78 | 1011.2 |
| 20260506165539 | 59 | 208 | 2.6 | 5.2 | 0.00 | 0.00 | 0.00 | 77 | 1011.4 |
| 20260506165035 | 59 | 201 | 2.6 | 5.2 | 0.00 | 0.00 | 0.00 | 77 | 1011.5 |
| 20260506164532 | 60 | 231 | 1.7 | 6.1 | 0.00 | 0.00 | 0.00 | 76 | 1011.5 |
| 20260506164030 | 60 | 228 | 2.6 | 7.8 | 0.00 | 0.00 | 0.00 | 76 | 1011.6 |
| 20260506163525 | 61 | 232 | 1.7 | 2.6 | 0.00 | 0.00 | 0.00 | 75 | 1011.8 |
| 20260506163021 | 61 | 238 | 1.7 | 3.5 | 0.00 | 0.00 | 0.00 | 74 | 1011.7 |
| 20260506162518 | 62 | 228 | 2.6 | 3.5 | 0.00 | 0.00 | 0.00 | 74 | 1011.8 |
| 20260506162015 | 62 | 223 | 3.5 | 5.2 | 0.00 | 0.00 | 0.00 | 74 | 1012.0 |
| 20260506161513 | 62 | 215 | 2.6 | 2.6 | 0.00 | 0.00 | 0.00 | 74 | 1012.1 |
| 20260506161010 | 62 | 217 | 1.7 | 6.1 | 0.00 | 0.00 | 0.00 | 73 | 1012.1 |
| 20260506160508 | 63 | 227 | 0.9 | 6.1 | 0.00 | 0.00 | 0.00 | 73 | 1012.1 |
| 20260506160005 | 62 | 198 | 2.6 | 6.1 | 0.00 | 0.00 | 0.00 | 73 | 1012.4 |
| 20260506155503 | 62 | 228 | 2.6 | 5.2 | 0.00 | 0.00 | 0.00 | 73 | 1012.4 |
| 20260506153634 | 62 | 243 | 7.0 | 7.8 | 0.00 | 0.00 | 0.00 | 74 | 1012.2 |
| 20260506153131 | 62 | 192 | 2.6 | 2.6 | 0.00 | 0.00 | 0.00 | 74 | 1012.3 |
| 20260506152628 | 62 | 252 | 2.6 | 3.5 | 0.00 | 0.00 | 0.00 | 75 | 1012.6 |
| 20260506152125 | 62 | 166 | 1.7 | 2.6 | 0.00 | 0.00 | 0.00 | 74 | 1012.6 |
| 20260506151624 | 62 | 227 | 1.7 | 3.5 | 0.00 | 0.00 | 0.00 | 75 | 1012.7 |
| 20260506151121 | 62 | 233 | 3.5 | 8.7 | 0.00 | 0.00 | 0.00 | 75 | 1012.6 |
| 20260506150617 | 62 | 243 | 1.7 | 1.7 | 0.00 | 0.00 | 0.00 | 74 | 1012.4 |
| 20260506150114 | 62 | 169 | 0.9 | 3.5 | 0.00 | 0.00 | 0.00 | 76 | 1012.3 |
| 20260506145611 | 62 | 228 | 3.5 | 5.2 | 0.00 | 0.00 | 0.00 | 75 | 1012.3 |
| 20260506145108 | 62 | 173 | 1.7 | 5.2 | 0.00 | 0.00 | 0.00 | 75 | 1012.3 |
| 20260506144605 | 62 | 200 | 1.7 | 2.6 | 0.00 | 0.00 | 0.00 | 75 | 1012.3 |
| 20260506144102 | 62 | 238 | 2.6 | 3.5 | 0.00 | 0.00 | 0.00 | 76 | 1012.3 |
| 20260506143600 | 61 | 261 | 5.2 | 7.0 | 0.00 | 0.00 | 0.00 | 76 | 1012.1 |
| 20260506143058 | 61 | 219 | 1.7 | 7.0 | 0.00 | 0.00 | 0.00 | 76 | 1012.3 |
| 20260506142555 | 61 | 158 | 0.9 | 7.0 | 0.00 | 0.00 | 0.00 | 77 | 1012.1 |
| 20260506142053 | 60 | 225 | 1.7 | 2.6 | 0.00 | 0.00 | 0.00 | 78 | 1012.3 |
| 20260506141551 | 60 | 245 | 1.7 | 2.6 | 0.00 | 0.00 | 0.00 | 78 | 1012.4 |
| 20260506141049 | 60 | 121 | 0.0 | 2.6 | 0.00 | 0.00 | 0.00 | 79 | 1012.5 |
| 20260506140546 | 59 | 206 | 0.9 | 2.6 | 0.00 | 0.00 | 0.00 | 80 | 1012.6 |
| 20260506140044 | 59 | 151 | 0.0 | 2.6 | 0.00 | 0.00 | 0.00 | 80 | 1012.7 |
| 20260506135540 | 59 | 207 | 0.9 | 1.7 | 0.00 | 0.00 | 0.00 | 80 | 1012.7 |
| 20260506135036 | 59 | 151 | 0.0 | 2.6 | 0.00 | 0.00 | 0.00 | 80 | 1012.6 |
| 20260506134533 | 59 | 148 | 0.0 | 2.6 | 0.00 | 0.00 | 0.00 | 81 | 1012.8 |
| 20260506134029 | 59 | 186 | 0.9 | 2.6 | 0.00 | 0.00 | 0.00 | 81 | 1012.6 |
| 20260506133526 | 58 | 174 | 0.9 | 1.7 | 0.00 | 0.00 | 0.00 | 82 | 1012.8 |
| 20260506133023 | 58 | 220 | 1.7 | 5.2 | 0.00 | 0.00 | 0.00 | 81 | 1012.8 |
| 20260506132520 | 58 | 211 | 1.7 | 3.5 | 0.00 | 0.00 | 0.00 | 81 | 1012.8 |
| 20260506132018 | 58 | 245 | 3.5 | 5.2 | 0.00 | 0.00 | 0.00 | 81 | 1012.6 |
| 20260506131514 | 58 | 243 | 2.6 | 3.5 | 0.00 | 0.00 | 0.00 | 81 | 1012.6 |
| 20260506131011 | 58 | 232 | 2.6 | 3.5 | 0.00 | 0.00 | 0.00 | 81 | 1012.5 |
| 20260506130508 | 58 | 235 | 1.7 | 3.5 | 0.00 | 0.00 | 0.00 | 81 | 1012.5 |
| 20260506130006 | 58 | 201 | 1.7 | 7.0 | 0.00 | 0.00 | 0.00 | 81 | 1012.5 |
| 20260506125504 | 58 | 236 | 1.7 | 2.6 | 0.00 | 0.00 | 0.00 | 81 | 1012.6 |
| 20260506125001 | 57 | 219 | 1.7 | 1.7 | 0.00 | 0.00 | 0.00 | 82 | 1012.6 |
| 20260506124458 | 57 | 185 | 1.7 | 5.2 | 0.00 | 0.00 | 0.00 | 82 | 1012.6 |
| 20260506123956 | 57 | 258 | 2.6 | 3.5 | 0.00 | 0.00 | 0.00 | 82 | 1012.7 |
| 20260506123454 | 57 | 229 | 2.6 | 3.5 | 0.00 | 0.00 | 0.00 | 82 | 1012.5 |
| 20260506122951 | 57 | 234 | 1.7 | 5.2 | 0.00 | 0.00 | 0.00 | 82 | 1012.6 |
| 20260506122448 | 58 | 211 | 1.7 | 5.2 | 0.00 | 0.00 | 0.00 | 81 | 1012.5 |
| 20260506121947 | 57 | 148 | 0.0 | 1.7 | 0.00 | 0.00 | 0.00 | 82 | 1012.7 |
| 20260506121443 | 57 | 217 | 2.6 | 3.5 | 0.00 | 0.00 | 0.00 | 82 | 1012.9 |
| 20260506120940 | 58 | 243 | 1.7 | 2.6 | 0.00 | 0.00 | 0.00 | 81 | 1012.8 |
| 20260506120438 | 57 | 229 | 0.0 | 1.7 | 0.00 | 0.00 | 0.00 | 81 | 1012.8 |
| 20260506115935 | 58 | 231 | 2.6 | 2.6 | 0.00 | 0.00 | 0.00 | 81 | 1012.8 |
| 20260506115433 | 57 | 230 | 1.7 | 2.6 | 0.00 | 0.00 | 0.00 | 81 | 1012.8 |
| 20260506114931 | 57 | 176 | 0.9 | 1.7 | 0.00 | 0.00 | 0.00 | 82 | 1013.1 |
| 20260506114428 | 57 | 170 | 0.9 | 1.7 | 0.00 | 0.00 | 0.00 | 82 | 1013.1 |
| 20260506113927 | 57 | 248 | 3.5 | 3.5 | 0.00 | 0.00 | 0.00 | 81 | 1013.0 |
| 20260506113424 | 57 | 179 | 0.9 | 1.7 | 0.00 | 0.00 | 0.00 | 82 | 1013.1 |
| 20260506112920 | 57 | 156 | 0.9 | 1.7 | 0.00 | 0.00 | 0.00 | 82 | 1013.5 |
| 20260506112418 | 57 | 173 | 0.0 | 0.9 | 0.00 | 0.00 | 0.00 | 82 | 1013.4 |
| 20260506111915 | 57 | 210 | 0.9 | 0.9 | 0.00 | 0.00 | 0.00 | 82 | 1012.9 |
| 20260506111413 | 57 | 219 | 1.7 | 1.7 | 0.00 | 0.00 | 0.00 | 83 | 1013.0 |
| 20260506110910 | 56 | 199 | 0.9 | 2.6 | 0.00 | 0.00 | 0.00 | 83 | 1013.3 |
| 20260506110408 | 56 | 254 | 2.6 | 6.1 | 0.00 | 0.00 | 0.00 | 83 | 1013.0 |
| 20260506105904 | 56 | 186 | 0.0 | 1.7 | 0.00 | 0.00 | 0.00 | 83 | 1013.0 |